Погода в Росендале

Нидерланды     51°31′53″N   4°27′26″E
темп.,
°C
ветер,
м/с
пор.,
м/с
влажн.,
%
обл.,
%
осадки,
мм/ч
давл.,
гПа
погр.,
м
6 марта, сб
сб601:000св35880 0.0 1034121
04:000св35880 0.0 1034101
07:000всв23860 0.0 103453
10:00+4св346558 0.0 1034404
13:00+6всв335076 0.0 10341112
16:00+7всв334913 0.0 10321082
19:00+3всв23647 0.0 103125
22:00+1св347952 0.0 103187
7 марта, вс
вс701:000св358650 0.0 103093
04:00−1всв23860 0.0 102940
07:00−1св12860 0.0 102822
10:00+4с23660 0.0 1027404
13:00+6ссз33530 0.0 10261060
16:00+7сз43540 0.0 10241088
19:00+2сз35780 0.0 1024126
22:00+1ссз22860 0.0 102526
8 марта, пн
пн801:000зсз11880 0.0 102422
04:00+1зюз228547 0.0 102324
07:000юз238665 0.0 102347
10:00+4юз346989 0.0 1023277
13:00+6зюз346495 0.0 1023620
16:00+5зюз3577100 0.0 1021396
19:00+5юз2484100 0.3 1021151
22:00+4юз3687100 0.1 1021144
9 марта, вт
вт901:00+3юз488587 0.1 1020247
04:00+2юз488977 0.0 1019213
07:00+2юз489444 0.0 1019183
10:00+5зюз57820 0.0 1020396
13:00+9з566914 0.1 1020999
16:00+9зюз466596 0.1 10191076
19:00+7з367181 0.1 1019249
22:00+6юз497695 0.0 1020415
10 марта, ср
ср1001:00+5ююз4107789 0.0 1018343
04:00+5ююз71376100 0.0 1016519
07:00+5ююз71474100 0.0 1016579
10:00+6ююз91673100 0.0 1014753
13:00+6ююз101881100 0.6 1011882
16:00+7ююз101886100 1.4 1009870
19:00+9юз91890100 2.7 1007719
22:00+10юз101891100 3.4 1005870